Location: Grisols
(45.0093°N, 3.1167°E)
Time: 08:24:56
(UTC+00:00)

Cosmos 1833 Rocket - Pass Details

Date: 21 October 2019
Orbit: 833 x 839 km, 71.0° (Epoch: 16 November)

Event Time Altitude Azimuth Distance (km) Brightness Sun altitude
Rises 17:26:00 0° 338° (NNW) 3,392 6.0 -6.5°
Reaches altitude 10° 17:28:33 10° 344° (NNW) 2,455 5.2 -7.0°
Maximum altitude 17:33:59 47° 58° (ENE) 1,094 3.0 -7.9°
Drops below altitude 10° 17:39:23 10° 132° (SE) 2,444 4.7 -8.9°
Sets 17:41:54 0° 138° (SE) 3,376 5.5 -9.3°
